User: anonymous   Login
Location: Unspecified
(0.0000°N, 0.0000°E)
Time: 08:43:32
(UTC+00:00)
Language:

MERIDIAN 7 - Orbit

View from above orbital plane
View from above orbital plane
View from above satellite
View from above satellite

Ground track
Ground track

The orbit data is extracted from the following two-line orbital elements,

1 40296U 14069A   17292.79579652 +.00000187 +00000-0 +00000-0 0  9998
2 40296 062.8207 229.2622 6902624 275.1257 315.8900 02.00616262021780
Epoch (UTC): 19 October 2017 19:05:56
Eccentricity: 0.6902624
inclination: 62.8207°
perigee height: 1847 km
apogee height: 38507 km
right ascension of ascending node: 229.2622°
argument of perigee: 275.1257°
revolutions per day: 2.00616262
mean anomaly at epoch: 315.8900°
orbit number at epoch: 2178

The dashed part of the orbit path shows where the satellite is in the earth's shadow,  

DLR